Buger, Spain

4:21 PM CEST on April 29, 2017 (GMT +0200)
Buger

Weather History for 08306 - August, 2013

Change the Weather History Date:

Friday, August 9, 2013

  Actual Average Record
Temperature  
Mean Temperature 75 °F -  
Max Temperature 88 °F 84 °F - ()
Min Temperature 62 °F 64 °F - ()
Cooling Degree Days 10    
Growing Degree Days 25 (Base 50)    
Moisture  
Dew Point 57 °F    
Average Humidity 54    
Maximum Humidity 82    
Minimum Humidity 23    
Precipitation  
Precipitation 0.00 in 0.04 in - ()
Sea Level Pressure  
Sea Level Pressure 30.14 in    
Wind  
Wind Speed 3 mph ()    
Max Wind Speed 16 mph    
Max Gust Speed -    
Visibility 7.0 miles    
Events      
T = Trace of Precipitation, MM = Missing Value Source: Averaged Metar Reports

Daily Weather History Graph

Daily Weather History Graph

Search for Another Location

Airport or City:

Trip Planner

Search our weather history database for the weather conditions in past years. The results will help you decide how hot, cold, wet, or windy it might be!

Date:

Astronomy

Aug. 09, 2013 Rise Set
Actual Time 6:55 AM CEST 8:52 PM CEST
Civil Twilight 6:26 AM CEST 9:21 PM CEST
Nautical Twilight 5:50 AM CEST 9:57 PM CEST
Astronomical Twilight 5:12 AM CEST 10:35 PM CEST
Moon 9:25 AM CEST (8/9) 9:55 PM CEST (8/9)
Length of Visible Light 14h 55m
Length of Day
13h 56m
Waxing Crescent, 6% of the Moon is Illuminated
Aug 9
Waxing Crescent
Aug 14
First Quarter
Aug 21
Full
Aug 28
Last Quarter
Sep 5
New

Hourly Weather History & Observations

Time (CEST) Temp. Heat Index Dew Point Humidity Pressure Visibility Wind Dir Wind Speed Gust Speed Precip Events Conditions
12:00 AM 71.6 °F - 59.0 °F 64% 30.15 in 6.2 mi NE 1.2 mph - N/A   Partly Cloudy
12:30 AM 69.8 °F - 59.0 °F 68% 30.15 in 6.2 mi Variable 2.3 mph - N/A   Partly Cloudy
1:00 AM 69.8 °F - 59.0 °F 68% 30.15 in 6.2 mi Variable 1.2 mph - N/A   Partly Cloudy
1:30 AM 68.0 °F - 59.0 °F 73% 30.15 in 6.2 mi Variable 1.2 mph - N/A   Partly Cloudy
2:00 AM 68 °F - 59 °F 64% 30.16 in 12 mi NNE 2.3 mph - -  
2:00 AM 68.0 °F - 59.0 °F 73% 30.15 in - NNE 1.2 mph - N/A   Clear
2:30 AM 68.0 °F - 59.0 °F 73% 30.15 in - ENE 1.2 mph - N/A   Clear
3:00 AM 66.2 °F - 59.0 °F 78% 30.12 in - ESE 1.2 mph - N/A   Clear
3:30 AM 64.4 °F - 57.2 °F 77% 30.12 in - Calm Calm - N/A   Clear
4:00 AM 66.2 °F - 59.0 °F 78% 30.12 in - Calm Calm - N/A   Clear
4:30 AM 64.4 °F - 57.2 °F 77% 30.12 in - NE 2.3 mph - N/A   Clear
5:00 AM 64.4 °F - 57.2 °F 77% 30.12 in - Calm Calm - N/A   Clear
5:30 AM 62.6 °F - 57.2 °F 82% 30.15 in - Calm Calm - N/A   Clear
6:00 AM 62.6 °F - 57.2 °F 82% 30.15 in 6.2 mi Calm Calm - N/A   Partly Cloudy
6:30 AM 62.6 °F - 57.2 °F 82% 30.15 in 6.2 mi Calm Calm - N/A   Partly Cloudy
7:00 AM 62.6 °F - 57.2 °F 82% 30.15 in 6.2 mi ENE 1.2 mph - N/A   Partly Cloudy
7:30 AM 64.4 °F - 57.2 °F 77% 30.15 in 6.2 mi Variable 1.2 mph - N/A   Partly Cloudy
8:00 AM 66 °F - 58 °F 70% 30.17 in 16 mi Calm Calm - -   Partly Cloudy
8:00 AM 66.2 °F - 59.0 °F 78% 30.15 in 6.2 mi Calm Calm - N/A   Partly Cloudy
8:30 AM 69.8 °F - 60.8 °F 73% 30.15 in 6.2 mi Variable 1.2 mph - N/A   Partly Cloudy
9:00 AM 75.2 °F - 60.8 °F 61% 30.15 in 6.2 mi Calm Calm - N/A   Partly Cloudy
9:30 AM 78.8 °F - 62.6 °F 57% 30.18 in 6.2 mi Calm Calm - N/A   Partly Cloudy
10:00 AM 80.6 °F 81.8 °F 62.6 °F 54% 30.18 in 6.2 mi SSW 5.8 mph - N/A   Partly Cloudy
10:30 AM 80.6 °F 81.8 °F 62.6 °F 54% 30.15 in 6.2 mi SW 9.2 mph - N/A   Scattered Clouds
11:00 AM 82.4 °F 83.9 °F 64.4 °F 54% 30.15 in 6.2 mi SW 10.4 mph - N/A   Scattered Clouds
11:30 AM 84.2 °F 85.6 °F 64.4 °F 51% 30.18 in 6.2 mi SW 11.5 mph - N/A   Partly Cloudy
12:00 PM 84.2 °F 85.0 °F 62.6 °F 48% 30.18 in 6.2 mi SW 12.7 mph - N/A   Partly Cloudy
12:30 PM 84.2 °F 83.8 °F 59.0 °F 42% 30.15 in 6.2 mi SW 12.7 mph - N/A   Partly Cloudy
1:00 PM 86.0 °F 84.5 °F 55.4 °F 35% 30.15 in 6.2 mi WSW 10.4 mph - N/A   Partly Cloudy
1:30 PM 87.8 °F 85.7 °F 53.6 °F 31% 30.15 in 6.2 mi NW 4.6 mph - N/A   Partly Cloudy
2:00 PM 88 °F - 55 °F 23% 30.16 in 19 mi NNW 10.4 mph - -   Scattered Clouds
2:00 PM 87.8 °F 86.1 °F 55.4 °F 33% 30.15 in 6.2 mi NW 8.1 mph - N/A   Partly Cloudy
2:30 PM 87.8 °F 85.7 °F 53.6 °F 31% 30.15 in 6.2 mi WNW 9.2 mph - N/A   Partly Cloudy
3:00 PM 87.8 °F - 51.8 °F 29% 30.15 in 6.2 mi NW 11.5 mph - N/A   Partly Cloudy
3:30 PM 87.8 °F 85.7 °F 53.6 °F 31% 30.12 in 6.2 mi WNW 11.5 mph - N/A   Partly Cloudy
4:00 PM 87.8 °F 86.1 °F 55.4 °F 33% 30.12 in 6.2 mi WNW 10.4 mph - N/A   Partly Cloudy
4:30 PM 87.8 °F 85.7 °F 53.6 °F 31% 30.12 in 6.2 mi West 10.4 mph - N/A   Partly Cloudy
5:00 PM 87.8 °F 85.7 °F 53.6 °F 31% 30.12 in 6.2 mi West 10.4 mph - N/A   Partly Cloudy
5:30 PM 87.8 °F 86.1 °F 55.4 °F 33% 30.12 in 6.2 mi WSW 16.1 mph - N/A   Partly Cloudy
6:00 PM 86.0 °F 84.5 °F 55.4 °F 35% 30.12 in 6.2 mi NNW 10.4 mph - N/A   Partly Cloudy
6:30 PM 86.0 °F 84.9 °F 57.2 °F 37% 30.12 in 6.2 mi NW 11.5 mph - N/A   Partly Cloudy
7:00 PM 86.0 °F 84.2 °F 53.6 °F 33% 30.12 in 6.2 mi NW 10.4 mph - N/A   Partly Cloudy
7:30 PM 84.2 °F 82.8 °F 53.6 °F 35% 30.09 in 6.2 mi NW 8.1 mph - N/A   Partly Cloudy
8:00 PM 84.2 °F 82.8 °F 53.6 °F 35% 30.09 in 6.2 mi NW 4.6 mph - N/A   Partly Cloudy
8:30 PM 84.2 °F 83.0 °F 55.4 °F 37% 30.12 in 6.2 mi Variable 2.3 mph - N/A   Partly Cloudy
9:00 PM 80.6 °F 80.8 °F 57.2 °F 45% 30.12 in - Calm Calm - N/A   Clear
9:30 PM 78.8 °F - 57.2 °F 47% 30.12 in - Variable 2.3 mph - N/A   Clear
10:00 PM 77.0 °F - 57.2 °F 50% 30.12 in - Calm Calm - N/A   Clear
10:30 PM 77.0 °F - 55.4 °F 47% 30.12 in - ESE 4.6 mph - N/A   Clear
11:00 PM 73.4 °F - 57.2 °F 57% 30.12 in - Variable 1.2 mph - N/A   Clear
11:30 PM 71.6 °F - 55.4 °F 57% 30.15 in - Variable 2.3 mph - N/A   Clear